Location: ??
(35.4032°N, 139.3073°E)
Time: 12:09:52
(UTC+00:00)

Cosmos 2237 Rocket - Pass Details

Date: 13 April 2024
Orbit: 833 x 851 km, 71.0° (Epoch: 22 May)

Event Time Altitude Azimuth Distance (km) Brightness Sun altitude
Exits shadow 18:42:07 27° 273° (W) 1,582 3.1 -18.1°
Maximum altitude 18:43:34 30° 299° (WNW) 1,472 3.2 -17.8°
Drops below altitude 10° 18:48:30 10° 360° (N) 2,472 4.9 -16.9°
Sets 18:51:17 0° 11° (N) 3,414 5.9 -16.4°
